Location: ?ern� Novina
(50.6762°N, 14.8696°E)
Time: 18:01:10
(UTC+00:00)

FALCON 9 DEB - Pass Details

Date: 03 March 2021
Orbit: 367 x 387 km, 53.0° (Epoch: 12 April)

Event Time Altitude Azimuth Distance (km) Brightness Sun altitude
Rises 17:55:26 0° 278° (W) 2,290 9.0 -11.9°
Reaches altitude 10° 17:57:32 10° 283° (WNW) 1,433 7.2 -12.2°
Maximum altitude 18:00:41 53° 2° (N) 488 3.3 -12.7°
Enters shadow 18:02:27 23° 72° (ENE) 896 4.2 -13.0°
